RH
26 44 65 58 67 64 62 45 42 39 46 58 48 26 18 11 10 11 10 10 30 31 19 26 30 31 29 26 26 38 39 35 36 22 15 18 11 13 17 18 19 22 29 32
28 36 50 42 40 50 51 41 38 41 22 21 18 12 10 10 10 10 9 12 23 25 36 41 38 31 38 42 41 46 29 10 9 10 10 12 16 17 17 18 21 23 30 49
28 32 47 20 21 40 43 50 32 12 13 15 25 21 15 11 11 10 10 10 21 47 41 40 42 42 38 32 23 13 9 11 10 10 12 14 19 21 22 23 24 28 36 53
43 37 27 16 26 46 42 29 16 16 26 43 49 49 40 30 23 18 13 13 26 33 37 39 41 37 32 20 12 12 12 11 11 13 16 21 27 29 29 29 32 42 56 66
46 24 18 11 29 59 51 15 22 23 19 16 18 22 22 30 22 16 12 17 28 38 39 36 32 21 13 12 13 12 12 13 13 15 22 32 38 39 38 37 44 60 67 78
62 40 13 13 23 37 43 13 48 19 13 13 17 17 17 30 25 16 17 31 38 36 33 25 14 14 14 13 13 13 14 15 18 22 31 42 48 46 45 51 62 68 70 73
66 40 17 16 47 60 49 23 17 20 11 12 15 15 15 23 26 20 24 32 32 24 15 14 14 14 13 14 15 16 17 18 20 28 43 53 53 52 54 62 66 68 75 77
77 62 28 18 34 77 82 42 24 22 10 10 12 15 17 21 22 23 30 26 15 14 14 14 14 15 16 18 19 19 21 24 27 37 50 57 59 60 64 66 68 75 76 76
69 56 67 44 32 48 63 48 32 30 11 10 11 12 16 19 22 21 16 15 15 15 15 16 17 19 20 22 23 23 28 34 46 58 63 65 67 68 64 64 69 72 71 72
93 71 60 75 68 56 43 48 30 29 13 11 12 12 12 12 13 15 16 17 17 17 18 20 22 25 27 28 30 38 44 50 53 62 68 71 68 63 63 64 65 68 71 73
83 99 100 96 95 93 67 38 26 25 21 13 15 15 15 16 18 19 20 20 21 22 24 27 31 33 35 38 47 50 52 57 65 69 68 64 61 62 63 63 68 69 72 80
67 98 99 100 92 86 50 27 25 29 28 17 17 19 20 23 26 27 27 27 27 28 32 36 38 42 49 56 56 61 66 70 68 64 60 61 63 60 65 68 68 75 80 76
76 97 96 99 86 87 60 37 38 45 36 24 21 23 25 26 26 27 30 33 35 36 43 49 55 65 68 72 73 73 69 62 59 60 62 62 64 67 71 73 83 89 93 88
99 100 95 100 100 100 99 92 67 52 58 64 55 44 45 60 72 70 60 64 69 62 64 73 77 80 81 78 74 71 67 62 62 65 66 67 70 74 79 82 87 93 85 76
98 93 91 100 97 90 95 99 97 98 98 98 97 90 89 94 90 91 86 93 92 83 78 84 86 80 76 75 74 73 74 80 80 77 73 75 80 85 88 91 92 84 74 59
95 95 81 85 94 91 97 97 97 97 98 97 94 97 97 96 93 96 100 82 68 69 90 94 95 100 96 84 83 85 98 100 92 88 83 87 89 92 96 94 84 73 52 24
74 90 97 98 96 100 98 87 79 94 92 93 94 96 98 85 100 100 94 92 85 83 100 100 100 100 100 99 99 99 99 96 98 99 98 96 98 100 96 83 71 44 20 16
46 42 34 74 94 91 95 99 96 99 100 99 100 100 100 100 96 93 94 100 100 100 100 100 100 100 100 100 100 100 100 99 100 100 100 100 100 95 83 67 35 19 17 15
27 33 38 54 73 83 84 88 92 98 100 100 100 100 99 100 100 95 100 100 100 100 100 100 100 100 100 100 100 100 100 100 100 100 100 100 94 80 58 27 20 18 17 18
25 28 55 64 70 87 94 91 99 100 100 99 99 100 100 100 94 100 100 100 100 100 100 100 100 100 100 100 100 100 100 100 100 100 98 90 74 51 30 23 20 21 22 24
59 58 50 99 100 100 100 100 100 98 99 100 95 88 89 98 100 100 100 100 100 100 100 100 100 100 100 100 100 100 98 98 98 94 82 56 40 40 30 25 26 27 28 27
97 95 100 100 99 100 99 100 98 98 100 95 97 100 100 100 100 100 100 100 100 100 100 100 100 100 100 100 100 98 98 95 85 63 54 43 35 34 34 33 32 31 30 32
98 91 66 73 90 99 100 100 100 100 100 100 100 100 100 100 100 100 100 100 100 100 100 100 100 100 100 100 100 95 81 63 61 67 67 58 42 39 37 36 33 33 35 46
100 99 99 100 100 100 99 100 100 100 100 100 100 100 100 100 100 100 100 100 100 100 100 100 100 100 99 92 80 65 72 94 92 57 45 48 42 38 38 37 36 40 54 70
100 100 100 100 100 100 100 100 100 100 100 100 100 100 100 100 100 100 100 100 100 100 100 98 94 84 68 48 48 61 49 32 32 38 38 36 37 39 40 41 50 68 83 73
100 100 100 100 100 100 100 100 100 100 100 100 100 100 100 100 100 100 100 100 97 93 84 64 40 26 25 25 25 25 26 28 29 32 36 39 43 50 63 81 92 94 80 48
100 100 100 100 100 100 100 100 100 100 100 100 100 100 100 100 99 96 89 73 50 30 24 24 24 24 23 21 20 21 24 29 37 48 62 77 89 96 100 100 97 73 52 52
Wind_Speed
23 25 30 28 30 30 32 27 29 23 25 22 22 23 23 22 22 23 25 24 23 26 28 28 30 29 28 29 30 32 34 35 36 37 38 38 40 42 44 46 49 52 55 57
25 24 27 27 29 33 33 28 24 24 19 18 22 24 25 24 26 26 24 23 24 25 27 27 28 29 30 31 32 33 33 34 35 36 37 40 42 45 47 50 52 55 56 58
27 26 28 26 26 27 26 23 21 21 19 23 24 26 27 27 29 30 28 26 26 28 27 27 28 29 31 32 33 33 33 34 36 38 40 43 45 47 50 53 55 57 59 60
31 29 32 12 16 19 22 20 20 23 23 25 25 26 26 28 28 29 29 26 24 25 27 28 29 29 30 31 31 32 33 35 37 40 43 45 48 50 52 54 57 58 59 60
34 30 27 21 19 18 19 14 21 23 25 28 27 27 26 25 25 25 25 26 25 24 24 25 27 28 28 29 30 32 34 37 40 43 46 48 50 53 55 57 58 59 61 60
35 33 29 18 18 20 24 12 22 20 21 24 24 23 23 24 23 23 23 23 23 23 25 25 25 26 27 29 32 34 38 41 44 46 49 51 53 56 57 58 60 61 62 61
33 32 27 21 21 22 26 17 25 23 22 24 24 23 22 21 21 22 22 23 24 24 23 24 26 27 30 32 36 39 42 45 47 49 51 54 56 57 58 59 61 62 62 62
35 34 29 16 24 27 21 25 25 23 22 22 22 20 18 19 20 21 22 22 21 22 24 26 29 31 34 38 41 44 47 49 51 52 54 56 58 59 60 62 63 63 63 65
36 33 26 21 23 28 27 27 27 22 24 22 22 20 19 19 20 20 20 22 24 26 29 31 34 37 41 44 47 50 51 52 53 55 57 58 59 61 63 64 64 64 66 69
36 36 31 22 20 25 30 33 30 27 25 23 23 23 22 22 22 23 25 27 30 32 34 37 40 43 46 49 51 52 53 55 57 58 59 59 61 64 65 65 65 66 69 73
41 33 29 21 20 27 32 36 32 29 27 26 25 26 27 27 28 29 31 33 35 38 40 43 46 48 50 51 53 54 56 58 59 59 60 63 65 66 67 67 69 72 75 79
41 31 31 25 27 30 33 32 32 31 31 30 30 31 32 32 33 35 37 39 42 44 47 49 51 51 51 53 54 57 58 58 58 60 64 67 68 69 70 73 74 77 81 83
43 44 38 34 32 32 35 34 33 32 33 34 35 36 37 38 40 42 44 46 48 50 51 52 52 52 53 54 56 56 57 58 60 64 67 70 72 74 75 75 78 81 83 86
41 41 39 34 35 39 38 40 39 38 39 41 41 41 42 43 46 46 48 50 51 52 53 53 52 53 55 56 56 58 58 59 62 68 71 73 74 75 77 80 82 84 85 84
36 38 38 37 36 35 34 38 34 35 38 40 44 50 51 50 44 48 51 53 52 52 52 52 52 53 55 59 61 60 60 63 67 72 76 76 77 78 81 83 84 84 83 84
36 38 44 35 36 37 38 37 39 40 38 40 43 45 45 47 53 57 54 51 53 54 53 54 57 59 60 62 61 62 66 69 72 77 79 78 79 81 84 83 82 82 82 79
41 35 35 41 44 47 44 44 43 41 44 44 46 46 49 53 56 53 49 49 57 63 64 59 57 62 66 64 63 66 71 75 76 77 78 80 82 82 81 80 80 80 75 75
42 45 45 44 44 48 45 46 47 48 54 53 48 52 50 48 51 50 46 52 59 61 54 58 65 64 63 64 67 71 76 76 76 77 79 80 80 79 79 79 77 72 73 76
42 44 46 47 46 48 49 50 51 51 54 59 58 50 42 47 48 55 57 54 58 64 64 66 65 65 66 69 73 76 76 76 76 77 78 78 78 78 78 74 71 73 75 74
46 45 44 46 48 48 52 49 51 53 55 52 42 37 42 53 54 56 60 57 59 62 63 64 66 68 71 74 76 78 78 77 77 78 77 77 77 76 71 71 73 75 74 72
43 41 44 38 37 49 55 47 41 37 36 43 44 47 50 56 58 55 58 60 61 66 69 69 69 71 75 79 80 81 81 79 79 78 77 76 73 71 71 74 75 74 73 72
42 37 37 42 41 30 36 38 37 39 41 42 47 49 52 53 57 59 62 65 68 71 73 73 74 78 82 82 83 82 80 80 79 78 75 72 71 73 75 75 75 74 73 73
43 33 31 33 33 33 34 36 38 41 45 47 52 55 58 61 63 64 66 68 71 73 75 77 80 82 83 82 81 81 82 80 78 76 75 74 75 76 76 76 75 73 73 70
27 30 33 34 35 37 38 41 44 47 52 56 58 59 62 65 67 68 69 70 72 74 77 79 81 82 82 82 83 82 79 78 79 78 77 78 79 78 76 75 74 72 69 67
30 33 35 37 39 44 47 49 53 56 58 60 62 64 66 68 70 71 73 74 76 78 79 81 82 82 82 81 80 80 80 81 81 83 83 82 79 78 76 74 71 68 67 66
39 42 44 46 49 52 55 57 59 61 63 64 66 67 68 70 72 74 76 77 79 81 81 81 80 80 80 81 83 85 86 87 86 85 83 81 78 75 72 69 67 66 65 61
44 46 48 51 54 57 59 61 62 64 65 67 69 70 71 73 75 77 78 78 77 77 78 79 81 84 86 88 89 90 89 87 85 83 80 76 73 71 69 67 66 63 57 52
Wind_Direction
230 229 235 235 237 241 249 254 259 270 267 255 260 262 263 267 270 271 271 270 264 260 264 260 259 261 265 269 274 278 281 284 285 287 288 291 296 298 298 299 300 301 300 299
229 228 230 239 244 244 249 258 266 262 253 263 259 263 266 266 267 271 271 271 261 254 258 262 265 268 271 274 277 280 281 283 286 289 294 299 301 301 301 300 299 298 298 298
228 229 235 240 246 246 252 253 261 266 270 269 269 267 266 262 262 266 267 266 263 259 256 261 265 268 272 276 281 283 285 288 293 298 300 301 300 299 298 298 299 299 300 300
229 229 234 237 235 240 242 243 255 266 280 271 272 273 271 267 265 264 263 263 264 262 259 263 268 271 274 276 279 283 288 294 297 299 299 299 298 299 299 300 300 300 300 300
233 238 243 226 221 236 250 233 261 270 267 272 275 276 276 272 265 263 261 260 263 264 266 268 269 271 274 279 285 290 295 296 299 299 299 299 299 301 301 301 301 301 302 301
235 240 239 229 234 242 251 220 272 272 281 283 284 285 279 269 265 265 263 261 261 263 267 268 270 274 280 286 290 293 296 298 299 301 302 302 301 301 302 302 303 303 301 299
237 246 249 238 244 241 250 259 264 275 280 284 284 287 286 276 268 262 259 261 266 269 269 273 278 284 287 290 293 297 299 300 301 301 301 302 302 301 302 303 304 303 300 299
238 245 250 259 245 250 265 263 263 271 278 282 284 282 279 268 265 260 260 265 265 268 274 279 283 286 290 294 298 300 300 301 301 301 300 300 301 302 304 305 305 303 301 302
240 247 252 253 253 252 257 263 268 271 274 277 278 276 273 267 263 261 261 264 268 274 278 281 286 290 294 298 299 299 299 299 299 300 301 302 303 305 306 306 305 303 303 304
242 241 250 247 253 262 258 258 262 265 272 272 271 271 269 264 262 262 266 269 274 278 282 286 290 294 297 298 299 299 300 300 300 301 302 303 306 307 306 306 305 305 306 308
236 239 242 253 261 263 257 254 260 266 269 268 268 269 267 266 267 271 274 277 280 283 286 289 293 295 297 297 298 298 299 300 301 302 304 307 307 308 307 308 308 309 310 310
239 244 246 245 251 259 259 257 258 262 264 265 264 265 268 271 273 275 279 282 286 289 291 294 295 295 295 295 296 297 299 301 303 306 307 309 310 309 309 309 310 310 309 310
241 241 244 243 248 255 260 261 257 260 262 264 266 267 270 274 278 281 284 287 289 290 291 292 291 291 293 294 296 299 301 303 305 308 311 311 310 309 309 309 308 308 308 309
243 244 244 249 256 259 263 260 258 259 262 265 266 268 270 274 276 282 284 286 288 289 290 290 290 291 293 296 299 300 301 304 307 310 309 308 307 307 307 307 307 308 309 311
250 251 247 254 258 260 262 269 265 270 269 269 271 270 270 277 280 280 282 286 287 288 290 288 288 293 298 300 300 299 300 303 305 307 308 307 306 306 306 306 307 308 310 311
267 257 255 258 268 270 266 265 267 267 271 275 279 280 279 281 284 286 284 286 288 287 285 288 283 290 297 298 295 296 300 302 303 305 307 306 305 305 305 305 308 310 311 311
262 271 265 260 260 258 268 278 274 278 277 274 276 275 277 285 283 279 285 284 295 291 281 277 283 286 293 294 295 297 298 301 303 305 305 304 303 303 304 308 310 310 311 312
259 263 266 267 266 268 269 264 272 278 274 276 274 279 269 279 282 288 285 285 287 274 274 285 294 292 290 290 293 297 300 301 302 302 302 302 303 305 308 309 310 311 312 314
261 261 262 264 267 270 269 269 271 272 286 272 260 261 276 284 273 282 290 268 277 280 280 288 290 289 290 292 296 298 299 299 300 300 301 303 306 307 308 309 311 312 313 314
262 263 264 266 268 268 269 274 274 269 259 260 279 276 269 276 280 280 277 275 281 281 284 288 290 289 289 293 295 298 300 300 301 303 305 306 306 306 308 310 312 312 313 313
260 268 265 271 267 250 251 254 257 267 268 271 272 273 275 276 276 275 275 283 284 286 290 291 289 286 290 295 298 299 300 301 303 304 304 304 305 307 309 310 310 312 312 313
260 257 259 261 263 251 259 267 266 268 273 275 275 273 270 272 278 284 286 286 286 287 287 287 287 291 295 297 299 300 302 302 302 302 303 304 305 306 307 308 310 311 312 313
261 270 270 269 269 270 271 270 271 268 267 268 269 273 277 280 282 284 286 287 286 285 286 288 291 294 297 298 300 301 301 300 301 303 303 304 304 305 306 308 309 310 311 312
264 265 266 266 267 269 271 270 269 270 273 277 278 280 281 282 283 284 284 283 284 286 288 291 294 296 298 299 300 299 299 300 301 301 301 301 302 303 305 306 307 309 309 310
264 268 272 275 277 273 267 269 274 276 278 279 280 281 282 282 282 283 284 286 287 290 293 296 297 298 297 296 296 297 297 298 298 298 299 300 301 302 303 304 305 306 308 311
265 265 265 265 266 267 268 271 274 276 277 279 281 281 282 284 285 287 289 291 293 295 296 296 295 294 295 295 295 296 295 296 296 297 298 299 300 300 301 302 303 306 308 309
268 269 271 273 274 275 276 277 278 279 280 281 282 283 285 287 290 293 295 295 294 293 293 294 294 294 294 294 295 295 295 295 296 296 297 297 298 298 299 300 302 304 304 303